Regional Weather Roundup
Issued by NWS

Home | Current Version | Previous Version | Graphics & Text | Print | Product List | Glossary Off
Versions: 1 2 3 4 5 6 7 8 9 10 11 12 13 14 15 16 17 18 19 20 21 22 23 24 25 26 27 28 29 30 31 32 33 34 35 36 37 38 39 40 41 42 43 44 45 46 47 48 49 50

000
ASUS43 KDMX 240001
RWRIA

WEATHER ROUNDUP FOR IOWA
NATIONAL WEATHER SERVICE DES MOINES IA
600 PM CST THU FEB 23 2017

NOTE: "FAIR" INDICATES FEW OR NO CLOUDS BELOW 12,000 FEET WITH NO
SIGNIFICANT WEATHER AND/OR OBSTRUCTIONS TO VISIBILITY.

* - THESE STATIONS ARE NOT NWS STATIONS...THUS NOT UNDER NWS
QUALITY CONTROL.  THEY ALSO DO NOT REPORT WEATHER SUCH
AS PRECIPITATION OR FOG.

IAZ001>003-012>014-020>022-031>034-043>046-240100-
   NORTHWEST IOWA

CITY           SKY/WX    TMP DP  RH WIND       PRES   REMARKS
CARROLL *      LGT RAIN  34  34 100 NE23      29.66F WCI  22
CHEROKEE *     LGT SNOW  32  31  95 NE23G32   29.70R WCI  19
DENISON *      CLOUDY    34  34 100 NE28G35   29.61R WCI  20
LE MARS *      SNOW      32  30  93 NE21G30   29.73R WCI  20
ORANGE CITY *  LGT SNOW  30  28  93 NE14G29   29.71S WCI  20
SHELDON *      LGT RAIN  30  30 100 NE30G38   29.71S WCI  15
SIOUX CITY     LGT SNOW  34  30  86 NE18G29   29.70S FOG     WCI  23
6HR MIN TEMP:  34; 6HR MAX TEMP:  38; 6HR PCP:  0.06;

SPENCER        SNOW      31  29  92 NE31G41   29.73F VSB 1/2 WCI  16
6HR MIN TEMP:  31; 6HR MAX TEMP:  35; 6HR PCP: TRACE;

STORM LAKE *   LGT RAIN  32  30  93 NE33G39   29.70R WCI  17
$$

IAZ055>058-069>071-079>083-090>094-240100-
   SOUTHWEST IOWA

CITY           SKY/WX    TMP DP  RH WIND       PRES   REMARKS
ATLANTIC *     CLOUDY    39  37  93 NE18      29.58F WCI  30
CLARINDA *     CLOUDY    45  39  81 NE13      29.55F
COUNCIL BLFS * MIX PCPN  37  37 100 NE17G25   29.60R WCI  28
CRESTON *      CLOUDY    43  39  87 NE18G24   29.57F
HARLAN  *      LGT RAIN  37  37 100 NE24G32   29.61F WCI  26
LAMONI         CLOUDY    48  41  76 NE13      29.54F
6HR MIN TEMP:  43; 6HR MAX TEMP:  51;

RED OAK *      CLOUDY    43  39  87 NE17G29   29.55F
SHENANDOAH *   CLOUDY    43  39  87 NE20G25   29.55R
$$

IAZ047>049-059>061-072>074-084-240100-
   CENTRAL IOWA

CITY           SKY/WX    TMP DP  RH WIND       PRES   REMARKS
AMES           CLOUDY    41  38  89 NE15G25   29.64F
6HR MIN TEMP:  41; 6HR MAX TEMP:  44; 6HR PCP:  0.02;

ANKENY *       CLOUDY    41  37  87 NE15      29.66R
BOONE *        MIX PCPN  39  39 100 NE20G26   29.65R WCI  30
CHARITON *     DRIZZLE   46  41  81 NE17      29.56F
DES MOINES     LGT RAIN  44  39  82 NE8G21    29.67R
6HR MIN TEMP:  43; 6HR MAX TEMP:  47; 6HR PCP:  0.01;

GRINNELL*      CLOUDY    42  38  86 NE17G23   29.65R
KNOXVILLE *    LGT RAIN  46  39  76 NE16      29.59S
MARSHALLTOWN   LGT RAIN  41  38  89 NE21      29.65F
6HR MIN TEMP:  41; 6HR MAX TEMP:  43; 6HR PCP: TRACE;

NEWTON *       CLOUDY    43  39  87 NE14G23   29.65R
PELLA *        CLOUDY    45  39  80 NE6       29.66R
PERRY *        RAIN      40  37  89 NE13      29.66R WCI  33
$$

IAZ004>006-015-016-023>025-035-036-240100-
   NORTH CENTRAL IOWA

CITY           SKY/WX    TMP DP  RH WIND       PRES   REMARKS
ALGONA *       MIX PCPN  32  32 100 NE29G35   29.73F VSB 3/4 WCI  18
CLARION *      CLOUDY    36  36 100 NE23G31   29.69F WCI  24
ESTHERVILLE    LGT SNOW  30  29  96 NE26G35   29.75F FOG     WCI  16
6HR MIN TEMP:  30; 6HR MAX TEMP:  34; 6HR PCP: TRACE;

FORT DODGE *   CLOUDY    34  28  80 NE15G23   29.71R WCI  24
MASON CITY     FLURRIES  35  31  85 NE21      29.76F WCI  24
6HR MIN TEMP:  35; 6HR MAX TEMP:  40; 6HR PCP:  0.01;

FOREST CITY *  LGT SNOW  32  32 100 NE21G26   29.76F WCI  20
WEBSTER CITY * CLOUDY    37  36  93 NE18G26   29.66F WCI  27
IOWA FALLS *   CLOUDY    40  36  86 NE20G28   29.71S WCI  31
$$

IAZ007>011-017>019-026>030-037>042-050>054-066-240100-
   NORTHEAST IOWA

CITY           SKY/WX    TMP DP  RH WIND       PRES   REMARKS
CEDAR RAPIDS   CLOUDY    42  41  96 NE16      29.64S
6HR MIN TEMP:  42; 6HR MAX TEMP:  45; 6HR PCP:  0.01;

CHARLES CITY * RAIN      39  37  93 N14       29.76R WCI  31
CLINTON *      CLOUDY    43  40  89 E18       29.68R
DECORAH *      CLOUDY    41  34  75 NE10      29.76R
DUBUQUE        CLOUDY    41  38  89 NE17      29.71R
6HR MIN TEMP:  41; 6HR MAX TEMP:  44; 6HR PCP:  0.06;

MONTICELLO *   LGT RAIN  41  39  93 NE13G21   29.69S
OELWEIN *      LGT RAIN  41  39  93 NE12G17   29.73R
WATERLOO       CLOUDY    41  36  82 NE10      29.72R
6HR MIN TEMP:  41; 6HR MAX TEMP:  46; 6HR PCP:  0.03;

$$

IAZ064-065-067-068-078-240100-
   EAST CENTRAL IOWA

CITY           SKY/WX    TMP DP  RH WIND       PRES   REMARKS
DAVENPORT      LGT RAIN  44  41  89 E24G31    29.63S
6HR MIN TEMP:  44; 6HR MAX TEMP:  47; 6HR PCP:  0.01;

IOWA CITY      CLOUDY    46  41  82 NE14G26   29.65S
6HR MIN TEMP:  46; 6HR MAX TEMP:  49; 6HR PCP: TRACE;

MUSCATINE *    CLOUDY    48  45  87 E13       29.62F
QUAD CITIES    RAIN      48  42  80 E22G28    29.63S
                                      6HR PCP:  0.10;

$$

IAZ062-063-075>077-085>089-095>099-240100-
   SOUTHEAST IOWA

CITY           SKY/WX    TMP DP  RH WIND       PRES   REMARKS
BURLINGTON     CLOUDY    50  47  89 E12       29.59F
6HR MIN TEMP:  46; 6HR MAX TEMP:  50; 6HR PCP:  0.05;

FAIRFIELD *    CLOUDY    46  45  93 E12       29.59S FOG
KEOKUK *       CLOUDY    50  46  87 NE8       29.56S
CENTERVILLE *  CLOUDY    45  45 100 NE10      29.58R
OTTUMWA        LGT RAIN  47  44  90 E14       29.59F
6HR MIN TEMP:  44; 6HR MAX TEMP:  51; 6HR PCP: TRACE;

WASHINGTON *   CLOUDY    46  45  93 E15       29.62R
$$

ABBREVIATIONS USED IN REMARKS
   TC - TEMPERATURES IN CELSIUS
  WCI - WIND CHILL INDEX
   HX - HEAT INDEX
  VSB - VISIBILITY
$$





USA.gov is the U.S. government's official web portal to all federal, state and local government web resources and services.